ASIASAT 5

Last updated on Sat Jul 05 2025 00:02:44 GMT+0000 (Coordinated Universal Time)

1 35696U 09042A 25185.62180705 -.00000293 00000+0 00000+0 0 9997 2 35696 0.0391 67.1600 0001156 24.1015 156.0280 1.00265790 58229
UTC large
Height (km)
Speed (km/s)
/
Latitude / Longitude
Inclination (degrees)
Orbital Period (minutes)
Azimuth
Elevation
Range (km)
Doppler Factor

Next 0 passes for location: London (51.5072 / 0.1276)

Sorry there are no passes over London.